Location: DARK SKY Beskydy - Park tmavé oblohy, www.darkskybeskydy.cz
(49.4926°N, 18.5016°E)
Time: 08:03:18
(UTC+02:00)

Envisat - Pass Details

Date: 27 June 2024
Orbit: 762 x 764 km, 98.3° (Epoch: 12 July)

Event Time Altitude Azimuth Distance (km) Brightness Sun altitude
Rises 03:09:56 0° 23° (NNE) 3,237 8.2 -10.8°
Reaches altitude 10° 03:12:36 10° 36° (NE) 2,306 7.1 -10.5°
Maximum altitude 03:16:52 27° 93° (E) 1,451 4.8 -10.1°
Drops below altitude 10° 03:21:06 10° 150° (SSE) 2,291 5.2 -9.7°
Sets 03:23:44 0° 163° (SSE) 3,211 5.9 -9.5°
